www.pogodaiklimat.ru

Погода и климат >> Архив погоды >> Россия >> Калининградская область >> Черняховск


ПОГОДА в Черняховске

  • Прогноз погоды в Черняховске
  • Монитор погоды в Черняховске

АРХИВ ПОГОДЫ в Черняховске

Время (UTC), дата Ветер
(напр.,м/с)
 
Видим.   Явления Облачность Т
(С)
Тd
(С)
f
(%)
Тe
(С)
Тes
(С)
Комфортность P
(гПа)
Po
(гПа)
Тmin
(С)
Tmax
(С)
R
(мм)
R24
(мм)
S
(см)
12 13.02 З 4-8
{8}
н/о н/о +4.4 +3.9 97 -0 -0 1015.2 1011.3
15 13.02 СЗ 5-11
{13}
н/о н/о +5.4 +2.7 83 +1 +1 1017.1 1013.2 1
18 13.02 З 3-6
{10}
10 км 3/0
[Ac cast]
+3.7 +1.8 87 -0 -0 1020.5 1016.6 +6.0 1
21 13.02 ЮЗ 1-3
{6}
н/о н/о +2.1 +1.4 95 0 0 1023.0 1019.0
00 14.02 З 2-4
{5}
н/о н/о +1.7 +1.6 99 -2 -2 1024.5 1020.5
03 14.02 З 3-6
{7}
н/о н/о +1.4 +1.3 99 -3 -3 1025.7 1021.7 +1.0
06 14.02 З 3-5
{6}
4000 м дымка 10/0
[Ac As]
+1.3 +1.3 100 -3 -3 1028.2 1024.2 +1.0
09 14.02 З 3-5
{6}
н/о н/о +4.0 +2.8 92 0 0 1029.7 1025.7
12 14.02 ЮЗ 2-5
{6}
н/о н/о +4.6 +2.5 86 +2 +2 1030.9 1026.9
15 14.02 ЮЗ 1-2
{6}
н/о н/о +4.3 +3.3 93 +3 +3 1030.6 1026.6
18 14.02 З 3-5
{5}
1000 м слаб. морось 10/10 300 м
[St]
+4.4 +4.3 99 +1 +1 1030.7 1026.7 +5.5 0.0
21 14.02 З 2-4
{7}
н/о н/о +4.6 +4.6 100 +2 +2 1030.7 1026.7
00 15.02 З 2-5
{6}
н/о н/о +4.9 +4.6 98 +2 +2 1029.9 1025.9
03 15.02 З 3-7
{7}
н/о н/о +4.3 +3.8 97 0 0 1029.2 1025.2 +4.0 0.1
06 15.02 ЮЗ 2-4
{7}
4000 м дымка 10/10 300 м
[Sc]
+3.2 +2.5 95 0 0 1029.5 1025.5 +3.0 0.0
09 15.02 З 2-4
{5}
н/о н/о +4.0 +3.3 95 +1 +1 1029.8 1025.8
12 15.02 З 4-6
{7}
н/о н/о +4.5 +3.9 96 0 0 1029.3 1025.3
15 15.02 З 2-4
{7}
н/о н/о +4.8 +4.2 96 +2 +2 1029.1 1025.1
18 15.02 З 3-5
{6}
4000 м слаб. морось 10/10 300 м
[St]
+4.0 +3.6 97 0 0 1029.6 1025.6 +5.0 0.0
21 15.02 З 2-5
{5}
н/о н/о +3.6 +3.3 98 0 0 1029.1 1025.1
00 16.02 ЮЗ 2-5
{5}
н/о н/о +3.7 +3.7 100 +1 +1 1028.5 1024.5
03 16.02 ЮЗ 3-5
{6}
н/о н/о +2.6 +2.4 99 -2 -2 1027.2 1023.2 +2.6
06 16.02 ЮЗ 2-4
{5}
4000 м дымка 10/0
[Cs]
+0.7 +0.7 100 -3 -3 1026.4 1022.4 +0.6 0.0
09 16.02 Ю 3-5
{7}
н/о н/о +3.5 +1.9 89 -0 -0 1025.8 1021.8
12 16.02 Ю 2-5
{7}
н/о н/о +9.5 +2.9 63 +8 +8 1023.8 1019.9
15 16.02 Ю 2-4
{9}
н/о н/о +9.7 +1.6 57 +8 +8 1021.6 1017.7
18 16.02 Ю 2-4
{6}
10 км ясно +6.0 +0.7 69 +4 +4 1020.1 1016.2 +10.5
21 16.02 ЮЗ 2-4
{6}
н/о н/о +4.7 +1.3 79 +2 +2 1019.2 1015.3
00 17.02 З 3-5
{6}
н/о н/о +4.9 +1.0 76 +2 +2 1018.3 1014.4
03 17.02 З 3-5
{8}
н/о н/о +5.3 +2.8 84 +2 +2 1018.7 1014.8 +3.8
06 17.02 З 2-4
{5}
4000 м дымка 10/10 300 м
[Sc]
+5.1 +3.8 91 +2 +2 1019.4 1015.5 +3.8
09 17.02 З 3-5
{7}
н/о н/о +5.5 +4.3 92 +2 +2 1021.0 1017.1
12 17.02 З 2-4
{5}
н/о н/о +6.2 +4.7 90 +4 +4 1021.6 1017.7
15 17.02 З 2-5
{5}
н/о н/о +6.0 +4.8 92 +3 +3 1022.0 1018.1
18 17.02 З 1-2
{5}
1000 м дождь 10/10 300 м
[Frnb Ns]
+4.7 +4.6 99 +3 +3 1022.9 1019.0 +6.3 1
21 17.02 З 1-2
{3}
н/о н/о +4.3 +4.3 100 +3 +3 1023.2 1019.3
00 18.02 штиль 0-2
{4}
н/о н/о +3.6 +3.6 100 +2 +2 1024.0 1020.1
03 18.02 ЮЗ 1-1
{2}
н/о н/о +3.3 +3.3 100 +2 +2 1023.6 1019.6 +3.2 1
06 18.02 Ю 1-2
{2}
200 м морось туман ?/? +2.8 +2.8 100 +1 +1 1024.2 1020.2 +2.8 0.3
09 18.02 Ю 1-3
{3}
н/о н/о +3.2 +3.2 100 +1 +1 1024.9 1020.9
12 18.02 Ю 1-3
{5}
н/о н/о +3.8 +3.5 98 +2 +2 1023.8 1019.9
15 18.02 ЮВ 3-5
{5}
н/о н/о +5.6 +3.6 87 +2 +2 1021.7 1017.8
18 18.02 ЮВ 2-4
{4}
4000 м дымка 3/0
[Ci fib]
+3.4 +2.4 93 0 0 1020.4 1016.5 +6.7 0.0
21 18.02 Ю 1-4
{6}
н/о н/о +2.9 +2.2 95 +1 +1 1019.1 1015.2
00 19.02 Ю 1-3
{4}
н/о н/о +2.3 +2.0 98 0 0 1017.5 1013.6
03 19.02 Ю 2-5
{5}
н/о н/о +2.4 +2.0 97 -1 -1 1014.7 1010.8 +2.0
06 19.02 Ю 1-3
{6}
4000 м дымка ясно +1.3 +0.9 97 -1 -1 1012.3 1008.4 +1.2
09 19.02 Ю 2-6
{8}
н/о н/о +4.9 +2.5 84 +2 +2 1010.5 1006.6
12 19.02 Ю 3-7
{8}
н/о н/о +9.9 +3.8 66 +8 +8 1007.6 1003.8
15 19.02 З 3-6
{10}
н/о н/о +9.3 +2.3 62 +7 +7 1007.9 1004.1
18 19.02 З 4-6
{10}
4000 м в посл. час ливневой дождь 10/10 300 м
[Cu Sc]
+5.4 +4.4 93 +1 +1 1009.2 1005.3 +11.0 0.4
21 19.02 ЮЗ 2-5
{7}
н/о н/о +5.5 +3.8 89 +3 +3 1008.1 1004.2
00 20.02 ЮЗ 2-5
{7}
н/о н/о +5.1 +3.9 92 +2 +2 1007.4 1003.5
03 20.02 З 5-10
{10}
н/о н/о +4.8 +3.4 91 -0 -0 1007.1 1003.2 +4.5 1
06 20.02 З 5-8
{12}
10 км 10/10 300 м
[Cu Sc]
+4.4 +2.5 87 -1 -1 1008.0 1004.1 +4.1 1

 

Местоположение метеостанции Черняховск (Калининградская область, Россия): широта 54.63 долгота 21.80 высота над уровнем моря 31 м.

В архиве по умолчанию представлена погода в Черняховске за последнюю неделю. Архивные данные за месяц целиком и за предыдущие месяцы, начиная с января 2011 года, Вы можете получить, выбрав интересующий диапазон дат из раскрывающегося списка и нажав кнопку "Ввод!".


*Определитесь, кто Вы:
робот инопланетянин человек

Внимание! Время в таблицах - всемирное. Для получения местного времени необходимо прибавить поправку, которая равна 2 ч.

Смотрите также архив погоды в соседних городах и на ближайших метеорологических станциях:

Погода в Железнодорожном (Калининградская область, Россия) (43 км)
Погода в Советске (Калининградская область, Россия) (51 км)
Погода в Виштынце (Калининградская область, Россия) (62 км)
Погода в Кибартае (Литва) (63 км)
Погода в Кентшине (Польша) (68 км)
Погода в Калининграде (Калининградская область, Россия) (76 км)
Погода в Шилуте (Литва) (83 км)
Погода в Рыбачем (Калининградская область, Россия) (85 км)
Погода в Рыбном Порту (Калининградская область, Россия) (87 км)
Погода в Ниде (Литва) (91 км)

Пояснения к столбцам:

Ветер - указаны скорость ветра в м/с - средняя за 10 мин, порывы в срок и между сроками (в фигурных скобках) и направление, откуда дует ветер: С - северный, СВ - северо-восточный, В - восточный, ЮВ - юго-восточный, Ю - южный, ЮЗ - юго-западный, З - западный, СЗ - северо-западный.
Видимость - горизонтальная дальность видимости в метрах или километрах. При видимости от 1 до 10 км при отсутствии осадков обычно наблюдается дымка, при ухудшении видимости до 1 км и менее - туман. В сухую погоду видимость может ухудшаться дымом, пылью или мглою.
Явления - указаны атмосферные явления, наблюдавшиеся в срок или в последний час перед сроком; фигурными скобками обозначены явления, наблюдавшиеся между сроками (за 1-3 часа до срока); квадратными скобками обозначены град или гололедные отложения с указанием их диаметра в мм.
Облачность - указаны через наклонную черту общая и нижняя облачность в баллах и высота нижней границы облаков в метрах; квадратными скобками обозначены формы облаков: Ci - перистые, Cs - перисто-слоистые, Cc - перисто-кучевые, Ac - высококучевые, As - высокослоистые, Sc - слоисто-кучевые, Ns - слоисто-дождевые, Cu - кучевые, Cb - кучево-дождевые. Подробнее классификацию облаков см. в Атласе облаков (PDF).
T - Температура воздуха - температура, измеренная на высоте 2 м над землей.
Td - Температура точки росы - температура, при понижении до которой содержащийся в воздухе водяной пар достигнет насыщения.
f - Относительная влажность воздуха - влажноcть воздуха, измеренная на высоте 2 м над землей.
Te - Эффективная температура - температура, которую ощущает одетый по сезону человек в тени. Характеристика душности погоды. При расчете учитывается влияние влажности воздуха и скорости ветра на теплоощущения человека.
Tes - Эффективная температура на солнце - температура, которую ощущает человек, с поправкой на солнечный нагрев. Характеристика знойности погоды. Зависит от высоты солнца над горизонтом, облачности и скорости ветра. Ночью, в пасмурную погоду, а также при ветре 12 м/с и более поправка равна нулю.
P - Атмосферное давление - приведенное к уровню моря атмосферное давление.
Po - Атмосферное давление - измеренное на уровне метеостанции атмосферное давление.
Tmin - Минимальная температура - минимум температуры воздуха на высоте 2 м над землей.
Tmax - Максимальная температура - максимум температуры воздуха на высоте 2 м над землей.
R - Количество осадков - Количество выпавших осадков за период времени, мм. При наведении курсора мыши на число - период времени, за который выпало указанное количество осадков.
R24 - Количество осадков - Количество выпавших осадков за 24 часа, мм.
S - Снежный покров - Высота снежного покрова, см. При наведении курсора мыши на число - состояние снежного покрова и степень покрытия местности в баллах.